Weather History for Luverne, MN

Change the Weather History Date:

Tuesday, August 19, 2014

  Actual Average (KFSD) Record (KFSD)
Temperature  
Mean Temperature 71 °F 71 °F  
Max Temperature 82 °F 82 °F 98 °F (1955)
Min Temperature 60 °F 59 °F 39 °F (2004)
Degree Days  
Heating Degree Days 0 1  
Month to date heating degree days 6  
Since 1 June heating degree days 65  
Since 1 July heating degree days 14  
Cooling Degree Days 6 6  
Month to date cooling degree days 136  
Year to date cooling degree days 563  
Since 1 June cooling degree days 527  
Growing Degree Days 21 (Base 50)    
Moisture  
Dew Point 62 °F    
Average Humidity 73    
Maximum Humidity 94    
Minimum Humidity 45    
Precipitation  
Precipitation 0.00 in 0.09 in 1.24 in (1989)
Month to date precipitation 1.90  
Year to date precipitation 18.24  
Snow  
Snow 0.00 in 0.00 in 0.00 in ()
Month to date snowfall 0.0  
Since 1 June snowfall 0.0  
Since 1 July snowfall 0.0  
Snow Depth -    
Sea Level Pressure  
Sea Level Pressure 29.81 in    
Wind  
Wind Speed 3 mph (WNW)    
Max Wind Speed 8 mph    
Max Gust Speed -    
Visibility 10 miles    
Events      
T = Trace of Precipitation, MM = Missing Value Source: NWS Daily Summary

Daily Weather History Graph

Daily Weather History Graph

Search for Another Location

Airport:

Trip Planner

Search our weather history database for the weather conditions in past years. The results will help you decide how hot, cold, wet, or windy it might be!

Date:

Astronomy

Aug. 19, 2014 Rise Set
Actual Time 6:34 AM CDT 8:22 PM CDT
Civil Twilight 6:03 AM CDT 8:52 PM CDT
Nautical Twilight 5:25 AM CDT 9:29 PM CDT
Astronomical Twilight 4:45 AM CDT 10:10 PM CDT
Moon 1:23 AM CDT (8/19) 4:22 PM CDT (8/19)
Length of Visible Light 14h 49m
Length of Day
13h 48m
Waning Crescent, 29% of the Moon is Illuminated
Aug 19
Waning Crescent
Aug 25
New
Sep 2
First Quarter
Sep 8
Full
Sep 15
Last Quarter

Hourly Weather History & Observations

Time (CDT) Temp. Heat Index Dew Point Humidity Pressure Visibility Wind Dir Wind Speed Gust Speed Precip Events Conditions
12:14 AM 66.2 °F - 60.8 °F 83% 29.78 in 10.0 mi Calm Calm - N/A   Clear
12:35 AM 64.4 °F - 60.8 °F 88% 29.78 in 10.0 mi NW 3.5 mph - N/A   Clear
12:52 AM 68.0 °F - 62.6 °F 83% 29.78 in 10.0 mi NW 3.5 mph - N/A   Clear
1:15 AM 64.4 °F - 60.8 °F 88% 29.77 in 10.0 mi Calm Calm - N/A   Clear
1:34 AM 64.4 °F - 60.8 °F 88% 29.77 in 10.0 mi NNW 3.5 mph - N/A   Clear
1:55 AM 64.4 °F - 60.8 °F 88% 29.77 in 10.0 mi Calm Calm - N/A   Clear
2:14 AM 64.4 °F - 60.8 °F 88% 29.78 in 10.0 mi WNW 3.5 mph - N/A   Clear
2:34 AM 62.6 °F - 60.8 °F 94% 29.78 in 10.0 mi Calm Calm - N/A   Clear
2:55 AM 62.6 °F - 59.0 °F 88% 29.79 in 10.0 mi SW 3.5 mph - N/A   Clear
3:14 AM 62.6 °F - 59.0 °F 88% 29.80 in 7.0 mi Calm Calm - N/A   Clear
3:35 AM 62.6 °F - 59.0 °F 88% 29.80 in 10.0 mi Calm Calm - N/A   Clear
3:54 AM 62.6 °F - 60.8 °F 94% 29.80 in 10.0 mi Calm Calm - N/A   Clear
4:15 AM 62.6 °F - 60.8 °F 94% 29.80 in 10.0 mi Calm Calm - N/A   Clear
4:34 AM 62.6 °F - 59.0 °F 88% 29.80 in 7.0 mi Calm Calm - N/A   Clear
4:55 AM 62.6 °F - 59.0 °F 88% 29.80 in 10.0 mi NW 4.6 mph - N/A   Clear
5:14 AM 60.8 °F - 59.0 °F 94% 29.80 in 7.0 mi Calm Calm - N/A   Clear
5:35 AM 60.8 °F - 59.0 °F 94% 29.80 in 7.0 mi NW 5.8 mph - N/A   Clear
5:54 AM 62.6 °F - 59.0 °F 88% 29.80 in 10.0 mi NW 4.6 mph - N/A   Clear
6:14 AM 60.8 °F - 59.0 °F 94% 29.80 in 7.0 mi NNW 3.5 mph - N/A   Clear
6:35 AM 60.8 °F - 59.0 °F 94% 29.80 in 7.0 mi Calm Calm - N/A   Clear
7:14 AM 62.6 °F - 59.0 °F 88% 29.80 in 7.0 mi NNW 3.5 mph - N/A   Clear
7:34 AM 62.6 °F - 60.8 °F 94% 29.80 in 10.0 mi NNW 4.6 mph - N/A   Clear
7:54 AM 64.4 °F - 60.8 °F 88% 29.81 in 10.0 mi WNW 5.8 mph - N/A   Clear
8:15 AM 66.2 °F - 60.8 °F 83% 29.81 in 10.0 mi NNW 4.6 mph - N/A   Clear
8:34 AM 68.0 °F - 62.6 °F 83% 29.81 in 10.0 mi NNW 4.6 mph - N/A   Clear
8:55 AM 69.8 °F - 62.6 °F 78% 29.81 in 10.0 mi NNW 4.6 mph - N/A   Clear
9:14 AM 71.6 °F - 62.6 °F 73% 29.81 in 10.0 mi NW 5.8 mph - N/A   Clear
9:34 AM 71.6 °F - 62.6 °F 73% 29.82 in 10.0 mi WNW 5.8 mph - N/A   Clear
9:54 AM 73.4 °F - 62.6 °F 69% 29.82 in 10.0 mi NW 5.8 mph - N/A   Clear
10:15 AM 73.4 °F - 62.6 °F 69% 29.83 in 10.0 mi West 8.1 mph - N/A   Clear
10:34 AM 75.2 °F - 62.6 °F 65% 29.84 in 10.0 mi WNW 5.8 mph - N/A   Clear
10:55 AM 77.0 °F - 62.6 °F 61% 29.83 in 10.0 mi NW 4.6 mph - N/A   Clear
11:14 AM 77.0 °F - 62.6 °F 61% 29.83 in 10.0 mi NW 4.6 mph - N/A   Clear
11:35 AM 77.0 °F - 62.6 °F 61% 29.84 in 10.0 mi NNW 5.8 mph - N/A   Clear
11:54 AM 78.8 °F - 62.6 °F 57% 29.84 in 10.0 mi NNW 6.9 mph - N/A   Clear
12:14 PM 78.8 °F - 62.6 °F 57% 29.84 in 10.0 mi NW 5.8 mph - N/A   Clear
12:35 PM 80.6 °F 81.8 °F 62.6 °F 54% 29.84 in 10.0 mi NNW 4.6 mph - N/A   Scattered Clouds
12:54 PM 78.8 °F - 62.6 °F 57% 29.83 in 10.0 mi NW 4.6 mph - N/A   Scattered Clouds
1:15 PM 80.6 °F 81.8 °F 62.6 °F 54% 29.83 in 10.0 mi West 6.9 mph - N/A   Scattered Clouds
1:34 PM 80.6 °F 81.8 °F 62.6 °F 54% 29.83 in 10.0 mi West 5.8 mph - N/A   Scattered Clouds
1:54 PM 80.6 °F 81.8 °F 62.6 °F 54% 29.82 in 10.0 mi Calm Calm - N/A   Scattered Clouds
2:15 PM 80.6 °F 81.8 °F 62.6 °F 54% 29.82 in 10.0 mi Calm Calm - N/A   Scattered Clouds
2:34 PM 82.4 °F 82.9 °F 60.8 °F 48% 29.82 in 10.0 mi WSW 5.8 mph - N/A   Clear
2:55 PM 80.6 °F 81.5 °F 60.8 °F 51% 29.82 in 10.0 mi West 5.8 mph - N/A   Mostly Cloudy
3:14 PM 82.4 °F 82.5 °F 59.0 °F 45% 29.81 in 10.0 mi WNW 3.5 mph - N/A   Scattered Clouds
3:34 PM 82.4 °F 82.9 °F 60.8 °F 48% 29.81 in 10.0 mi WSW 5.8 mph - N/A   Scattered Clouds
3:55 PM 82.4 °F 82.9 °F 60.8 °F 48% 29.81 in 10.0 mi Calm Calm - N/A   Scattered Clouds
4:14 PM 82.4 °F 82.9 °F 60.8 °F 48% 29.80 in 10.0 mi Calm Calm - N/A   Clear
4:34 PM 82.4 °F 82.5 °F 59.0 °F 45% 29.80 in 10.0 mi Calm Calm - N/A   Scattered Clouds
4:55 PM 82.4 °F 82.5 °F 59.0 °F 45% 29.80 in 10.0 mi Calm Calm - N/A   Mostly Cloudy
5:34 PM 82.4 °F 82.9 °F 60.8 °F 48% 29.80 in 10.0 mi SW 4.6 mph - N/A   Scattered Clouds
5:55 PM 80.6 °F 81.8 °F 62.6 °F 54% 29.80 in 10.0 mi SSW 4.6 mph - N/A   Clear
6:14 PM 80.6 °F 81.8 °F 62.6 °F 54% 29.79 in 10.0 mi SSW 4.6 mph - N/A   Clear
6:34 PM 80.6 °F 82.3 °F 64.4 °F 58% 29.80 in 10.0 mi SSW 4.6 mph - N/A   Clear
6:55 PM 78.8 °F - 64.4 °F 61% 29.80 in 10.0 mi SSW 5.8 mph - N/A   Clear
7:14 PM 78.8 °F - 64.4 °F 61% 29.80 in 10.0 mi SW 4.6 mph - N/A   Clear
7:34 PM 77.0 °F - 66.2 °F 69% 29.79 in 10.0 mi SW 4.6 mph - N/A   Clear
7:54 PM 75.2 °F - 68.0 °F 78% 29.80 in 10.0 mi SW 3.5 mph - N/A   Clear
8:14 PM 73.4 °F - 68.0 °F 83% 29.80 in 10.0 mi Calm Calm - N/A   Clear
8:35 PM 73.4 °F - 66.2 °F 78% 29.80 in 7.0 mi Calm Calm - N/A   Clear
8:54 PM 69.8 °F - 64.4 °F 83% 29.81 in 10.0 mi SW 4.6 mph - N/A   Clear
9:54 PM 69.8 °F - 64.4 °F 83% 29.84 in 10.0 mi Calm Calm - N/A   Clear
10:14 PM 68.0 °F - 62.6 °F 83% 29.84 in 10.0 mi Calm Calm - N/A   Clear
10:35 PM 68.0 °F - 62.6 °F 83% 29.83 in 10.0 mi Calm Calm - N/A   Clear
10:54 PM 68.0 °F - 64.4 °F 88% 29.84 in 10.0 mi Calm Calm - N/A   Clear
11:14 PM 68.0 °F - 62.6 °F 83% 29.83 in 10.0 mi Calm Calm - N/A   Clear
11:35 PM 68.0 °F - 62.6 °F 83% 29.83 in 10.0 mi Calm Calm - N/A   Clear
11:54 PM 68.0 °F - 62.6 °F 83% 29.83 in 10.0 mi Calm Calm - N/A   Clear